Cloud_Cover
5 5 5 5 5 5 5 2 1 0 3 88 98 100 93 10 5 49 5 5 5 3 5 0 5 28 83 47 5 6 0 4 5 5 20 8 5 5 4 2 0 2 4
5 5 5 5 5 5 5 5 4 2 1 1 20 65 10 5 5 5 5 5 5 2 8 7 20 20 5 6 5 8 4 8 93 96 32 5 5 0 0 0 0 0 0
5 5 5 5 5 5 5 5 5 5 3 0 0 2 5 5 10 5 67 0 1 3 5 4 6 6 3 9 5 19 4 10 43 10 4 0 0 1 5 0 0 0 3
9 5 5 5 5 5 5 5 5 3 2 4 10 7 6 5 33 5 88 2 5 29 5 5 7 26 20 6 5 11 5 43 5 0 3 0 0 0 1 1 2 0 0
34 37 5 5 5 5 5 5 5 5 6 3 8 96 71 23 8 51 100 98 99 88 5 5 5 14 100 100 54 7 5 6 0 0 23 8 0 0 0 0 2 1 13
96 58 5 5 5 5 5 14 5 5 5 2 6 85 5 10 5 93 100 39 99 39 16 8 5 51 100 100 100 8 7 3 0 0 0 3 7 0 0 34 5 1 3
84 5 5 5 5 10 5 5 5 5 7 77 100 76 93 9 5 99 66 47 92 48 6 6 10 17 41 99 100 63 12 5 0 13 28 9 5 1 4 1 2 2 4
93 25 35 85 5 5 10 5 5 15 91 98 94 75 14 5 9 84 90 13 94 42 40 12 6 8 18 86 100 100 38 5 10 47 5 74 5 6 0 7 5 2 7
100 16 92 20 40 9 6 14 77 100 100 93 100 100 68 5 5 81 100 73 12 58 41 7 37 5 5 19 100 100 98 15 30 99 16 7 35 89 1 10 6 12 13
14 6 16 24 47 57 91 100 100 100 100 93 78 100 100 20 55 12 100 96 15 99 69 5 68 14 5 39 100 100 100 30 50 79 51 8 24 50 0 0 3 15 4
100 87 11 63 28 49 100 100 100 100 100 100 96 100 100 25 99 40 62 96 100 100 100 63 42 5 5 58 100 100 100 100 20 73 37 8 5 62 3 0 4 4 15
98 100 100 99 93 85 100 100 100 100 100 100 98 100 100 89 100 100 92 42 6 68 100 10 69 7 99 57 79 100 100 100 76 22 99 10 5 6 18 5 2 0 0
96 100 8 99 74 60 77 100 100 100 100 100 100 98 17 31 100 100 53 95 100 76 74 16 9 5 39 91 99 98 100 100 100 17 100 5 4 7 31 10 1 0 8
95 100 5 96 36 39 78 100 100 100 100 100 100 99 7 69 97 92 96 63 100 100 77 75 100 100 95 32 5 88 100 100 100 96 46 0 1 5 5 19 5 0 0
100 84 100 16 99 70 98 100 100 100 100 100 100 100 80 78 99 100 100 41 100 91 99 79 100 83 72 73 6 19 90 100 100 97 52 0 0 5 5 26 5 5 5
98 100 92 93 6 96 100 100 100 100 100 100 98 88 40 88 56 98 95 100 59 100 100 100 66 100 53 40 54 6 6 98 96 35 88 1 0 1 8 100 20 5 5
100 100 94 100 95 88 100 100 100 100 100 100 100 100 100 74 100 100 94 100 68 100 36 99 28 19 99 86 82 10 12 94 90 100 3 2 0 0 3 96 90 34 1
85 100 100 100 100 100 93 100 100 100 100 100 100 100 94 16 75 84 100 100 64 11 100 81 100 93 98 100 81 37 5 67 89 76 17 37 42 87 0 2 88 96 50
100 38 55 61 100 100 99 98 100 100 100 100 100 100 100 28 29 80 100 100 100 87 100 100 100 100 100 90 68 78 62 97 91 77 44 98 45 23 43 99 3 5 6
89 26 5 45 81 69 73 23 98 100 100 100 100 100 98 8 6 84 100 100 99 100 100 100 84 100 100 100 68 53 99 72 94 87 57 31 15 6 1 1 0 2 35
4 0 0 0 4 3 14 80 55 100 100 100 94 100 86 10 7 5 100 92 100 100 100 100 17 100 100 100 71 72 73 5 5 5 32 80 78 100 26 0 0 0 1
1 0 0 0 8 5 11 10 94 100 100 73 77 30 10 20 22 62 5 79 96 100 90 89 100 100 100 100 100 60 99 100 100 3 7 2 19 99 66 6 0 0 31
0 0 0 0 0 4 0 3 14 11 5 57 97 49 65 5 14 48 28 5 5 78 100 100 100 100 100 100 100 87 31 91 82 23 0 0 0 0 13 4 11 5 0
0 0 0 0 0 3 0 2 15 58 100 79 100 100 95 47 50 100 100 23 79 23 64 100 26 100 100 100 100 99 29 33 25 4 32 0 0 0 1 0 5 1 0
0 0 0 0 3 1 21 0 13 8 55 85 60 99 25 54 73 96 37 16 13 7 5 6 54 100 100 100 100 57 100 23 3 6 100 100 6 0 1 0 13 7 7
0 0 3 4 27 80 15 9 1 100 41 73 47 32 27 63 100 16 52 94 5 13 60 8 54 56 100 85 100 100 100 100 100 34 100 100 100 38 7 12 0 37 21